Weather History for KLWD - October, 2013

Change the Weather History Date:

Thursday, October 24, 2013

  Actual Average Record
Temperature  
Mean Temperature 39 °F 50 °F  
Max Temperature 47 °F 60 °F 80 °F (1989)
Min Temperature 30 °F 40 °F 25 °F (2006)
Degree Days  
Heating Degree Days 26 15  
Month to date heating degree days 267 268  
Since 1 July heating degree days 315 368  
Cooling Degree Days 0 0  
Month to date cooling degree days 30 11  
Year to date cooling degree days 1093 944  
Moisture  
Dew Point 27 °F    
Average Humidity 65    
Maximum Humidity 85    
Minimum Humidity 45    
Precipitation  
Precipitation 0.00 in 0.12 in 0.95 in (1991)
Month to date precipitation 0.93 2.21  
Sea Level Pressure  
Sea Level Pressure 30.34 in    
Wind  
Wind Speed 9 mph (NW)    
Max Wind Speed 18 mph    
Max Gust Speed 25 mph    
Visibility 10 miles    
Events      
T = Trace of Precipitation, MM = Missing Value Source: NWS Daily Summary

Daily Weather History Graph

Daily Weather History Graph

Search for Another Location

Airport or City:

Trip Planner

Search our weather history database for the weather conditions in past years. The results will help you decide how hot, cold, wet, or windy it might be!

Date:

Astronomy

Oct. 24, 2013 Rise Set
Actual Time 7:36 AM CDT 6:21 PM CDT
Civil Twilight 7:08 AM CDT 6:49 PM CDT
Nautical Twilight 6:36 AM CDT 7:21 PM CDT
Astronomical Twilight 6:05 AM CDT 7:53 PM CDT
Moon 10:46 PM CDT (10/24) 12:39 PM CDT (10/24)
Length of Visible Light 11h 40m
Length of Day
10h 45m
Waning Gibbous, 71% of the Moon is Illuminated
Oct 24
Waning Gibbous
Oct 26
Last Quarter
Nov 3
New
Nov 9
First Quarter
Nov 17
Full

Hourly Weather History & Observations

Time (CDT) Temp. Windchill Dew Point Humidity Pressure Visibility Wind Dir Wind Speed Gust Speed Precip Events Conditions
12:53 AM 37.9 °F 34.4 °F 34.0 °F 86% 30.19 in 10.0 mi NW 4.6 mph - N/A   Overcast
1:53 AM 37.9 °F 30.5 °F 32.0 °F 79% 30.21 in 10.0 mi NNW 11.5 mph 20.7 mph N/A   Overcast
2:53 AM 37.0 °F 30.4 °F 30.9 °F 79% 30.22 in 10.0 mi NNW 9.2 mph - N/A   Overcast
3:53 AM 34.0 °F 29.8 °F 27.0 °F 75% 30.23 in 10.0 mi WNW 4.6 mph - N/A   Partly Cloudy
4:53 AM 30.9 °F 24.3 °F 26.1 °F 82% 30.26 in 10.0 mi West 6.9 mph - N/A   Clear
5:53 AM 33.1 °F 24.4 °F 27.0 °F 78% 30.27 in 10.0 mi WNW 11.5 mph - N/A   Mostly Cloudy
6:53 AM 32.0 °F 24.2 °F 26.1 °F 79% 30.29 in 10.0 mi NW 9.2 mph - N/A   Clear
7:53 AM 30.9 °F 22.8 °F 26.1 °F 82% 30.31 in 10.0 mi WNW 9.2 mph - N/A   Clear
8:53 AM 33.1 °F 25.5 °F 28.0 °F 82% 30.33 in 10.0 mi WNW 9.2 mph - N/A   Clear
9:53 AM 37.0 °F 28.9 °F 30.0 °F 76% 30.36 in 10.0 mi NNW 12.7 mph - N/A   Scattered Clouds
10:33 AM 37.4 °F 29.3 °F 30.2 °F 75% 30.33 in 10.0 mi NNW 12.7 mph 19.6 mph N/A   Mostly Cloudy
10:53 AM 39.9 °F 32.1 °F 30.0 °F 68% 30.37 in 10.0 mi NW 13.8 mph 17.3 mph N/A   Mostly Cloudy
11:40 AM 41.0 °F 33.9 °F 28.4 °F 61% 30.35 in 10.0 mi NNW 12.7 mph 25.3 mph N/A   Mostly Cloudy
11:53 AM 41.0 °F 33.5 °F 28.9 °F 62% 30.38 in 10.0 mi NNW 13.8 mph 19.6 mph N/A   Mostly Cloudy
12:01 PM 42.8 °F 35.4 °F 28.4 °F 57% 30.35 in 10.0 mi North 15.0 mph 23.0 mph N/A   Mostly Cloudy
12:53 PM 43.0 °F 36.4 °F 28.0 °F 56% 30.37 in 10.0 mi NNW 12.7 mph 20.7 mph N/A   Mostly Cloudy
1:53 PM 44.1 °F 37.7 °F 26.1 °F 49% 30.36 in 10.0 mi North 12.7 mph 19.6 mph N/A   Mostly Cloudy
2:53 PM 44.1 °F 37.1 °F 25.0 °F 47% 30.36 in 10.0 mi NW 15.0 mph 19.6 mph N/A   Overcast
3:53 PM 45.0 °F 38.2 °F 25.0 °F 46% 30.37 in 10.0 mi NW 15.0 mph 20.7 mph N/A   Overcast
4:53 PM 46.0 °F 41.0 °F 26.1 °F 46% 30.36 in 10.0 mi NW 10.4 mph - N/A   Overcast
5:53 PM 42.1 °F 39.2 °F 25.0 °F 51% 30.37 in 10.0 mi NW 4.6 mph - N/A   Scattered Clouds
6:53 PM 39.0 °F 34.8 °F 25.0 °F 57% 30.38 in 10.0 mi WNW 5.8 mph - N/A   Clear
7:53 PM 36.0 °F 32.1 °F 25.0 °F 64% 30.40 in 10.0 mi West 4.6 mph - N/A   Clear
8:53 PM 35.1 °F 31.0 °F 24.1 °F 64% 30.40 in 10.0 mi WNW 4.6 mph - N/A   Clear
9:53 PM 34.0 °F 29.8 °F 24.1 °F 67% 30.41 in 10.0 mi West 4.6 mph - N/A   Clear
10:53 PM 33.1 °F 27.7 °F 23.0 °F 66% 30.42 in 10.0 mi West 5.8 mph - N/A   Clear
11:53 PM 32.0 °F 25.6 °F 23.0 °F 69% 30.43 in 6.0 mi West 6.9 mph - N/A   Haze